EHI
0 0 0 0 0 0 0 0 0 0 0 0 0 0 0 0 0 0 0 0 0 0 0 0 0 0 0 0 0 0 0 0 0 0 0 0 0 0 0 0 0 0 0
0 0 0 0 0 0 0 0 0 0 0 0 0 0 0 0 0 0 0 0 0 0 0 0 0 0 0 0 0 0 0 0 0 0 0 0 0 0 0 0 0 0 0
0 0 0 0 0 0 0 0 0 0 0 0 0 0 0 0 0 0 0 0 0 0 0 0 0 0 0 0 0 0 0 0 0 0 0 0 0 0 0 0 0 0 0
0 0 0 0 0 0 0 0 0 0 0 0 0 0 0 0 0 0 0 0 0 0 0 0 0 0 0 0 0 0 0 0 0 0 0 0 0 0 0 0 0 0 0
0 0 0 0 0 0 0 0 0 0 0 0 0 0 0 0 0 0 0 0 0 0 0 0 0 0 0 0 0 0 0 0 0 0 0 0 0 0 0 0 0 0 0
0 0 0 0 0 0 0 0 0 0 0 0 0 0 0 0 0 0 0 0 0 0 0 0 0 0 0 0 0 0 0 0 0 0 0 0 0 0 0 0 0 0 0
0 0 0 0 0 0 0 0 0 0 0 0 0 0 0 0 0 0 0 0 0 0 0 0 0 0 0 0 0 0 0 0 0 0 0 0 0 0 0 0 0 0 0
0 0 0 0 0 0 0 0 0 0 0 0 0 0 0 0 0 0 0 0 0 0 0 0 0 0 0 0 0 0 0 0 0 0 0 0 0 0 0 0 0 0 0
0 0 0 0 0 0 0 0 0 0 0 0 0 0 0 0 0 0 0 0 0 0 0 0 0 0 0 0 0 0 0 0 0 0 0 0 0 0 0 0 0 0 0
0 0 0 0 0 0 0 0 0 0 0 0 0 0 0 0 0 0 0 0 0 0 0 0 0 0 0 0 0 0 0 0 0 0 0 0 0 0 0 0 0 0 0
0 0 0 0 0 0 0 0 0 0 0 0 0 0 0 0 0 0 0 0 0 0 0 0 0 0 0 0 0 0 0 0 0 0 0 0 0 0 0 0 0 0 0
0 0 0 0 0 0 0 0 0 0 0 0 0 0 0 0 0 0 0 0 0 0 0 0 0 0 0 0 0 0 0 0 0 0 0 0 0 0 0 0 0 0 0
0 0 0 0 0 0 0 0 0 0 0 0 0 0 0 0 0 0 0 0 0 0 0 0 0 0 0 0 0 0 0 0 0 0 0 0 0 0 0 0 0 0 0
0 0 0 0 0 0 0 0 0 0 0 0 0 0 0 0 0 0 0 0 0 0 0 0 0 0 0 0 0 0 0 0 0 0 0 0 0 0 0 0 0 0 0
0 0 0 0 0 0 0 0 0 0 0 0 0 0 0 0 0 0 0 0 0 0 0 0 0 0 0 0 0 0 0 0 0 0 0 0 0 0 0 0 0 0 0
0 0 0 0 0 0 0 0 0 0 0 0 0 0 0 0 0 0 0 0 0 0 0 0 0 0 0 0 0 0 0 0 0 0 0 0 0 0 0 0 0 0 0
0 0 0 0 0 0 0 0 0 0 0 0 0 0 0 0 0 0 0 0 0 0 0 0 0 0 0 0 0 0 0 0 0 0 0 0 0 0 0 0 0 0 0
0 0 0 0 0 0 0 0 0 0 0 0 0 0 0 0 0 0 0 0 0 0 0 0 0 0 0 0 0 0 0 0 0 0 0 0 0 0 0 0 0 0 0
0 0 0 0 0 0 0 0 0 0 0 0 0 0 0 0 0 0 0 0 0 0 0 0 0 0 0 0 0 0 0 0 0 0 0 0 0 0 0 0 0 0 0
0 0 0 0 0 0 0 0 0 0 0 0 0 0 0 0 0 0 0 0 0 0 0 0 0 0 0 0 0 0 0 0 0 0 0 0 0 0 0 0 0 0 0
0 0 0 0 0 0 0 0 0 0 0 0 0 0 0 0 0 0 0 0 0 0 0 0 0 0 0 0 0 0 0 0 0 0 0 0 0 0 0 0 0 0 0
0 0 0 0 0 0 0 0 0 0 0 0 0 0 0 0 0 0 0 0 0 0 0 0 0 0 0 0 0 0 0 0 0 0 0 0 0 0 0 0 0 0 0
0 0 0 0 0 0 0 0 0 0 0 0 0 0 0 0 0 0 0 0 0 0 0 0 0 0 0 0 0 0 0 0 0 0 0 0 0 0 0 0 0 0 0
0 0 0 0 0 0 0 0 0 0 0 0 0 0 0 0 0 0 0 0 0 0 0 0 0 0 0 0 0 0 0 0 0 0 0 0 0 0 0 0 0 0 0
0 0 0 0 0 0 0 0 0 0 0 0 0 0 0 0 0 0 0 0 0 0 0 0 0 0 0 0 0 0 0 0 0 0 0 0 0 0 0 0 0 0 0
0 0 0 0 0 0 0 0 0 0 0 0 0 0 0 0 0 0 0 0 0 0 0 0 0 0 0 0 0 0 0 0 0 0 0 0 0 0 0 0 0 0 0
Wind_Speed
12 12 11 10 10 10 9 9 9 8 8 8 7 6 6 6 6 6 6 7 8 8 8 9 9 9 7 7 7 8 9 9 13 12 11 12 14 14 13 13 13 13 12
12 12 11 11 10 10 10 10 9 9 8 8 7 7 7 7 7 7 7 8 8 9 9 9 10 8 10 9 8 10 10 10 12 15 12 12 14 14 14 14 13 11 12
12 12 12 11 11 11 10 9 9 8 8 7 7 7 7 7 7 8 8 8 9 10 10 10 11 11 12 10 10 10 10 10 11 12 13 11 11 11 13 13 14 12 13
13 13 13 13 12 11 10 9 9 8 8 8 8 7 7 7 7 8 8 9 10 10 11 11 12 12 13 12 11 12 11 11 12 12 12 11 11 12 11 11 11 11 11
13 13 13 12 11 10 10 9 8 8 8 8 7 7 7 7 7 7 8 9 10 11 11 12 12 14 16 14 11 11 11 11 11 11 12 12 11 10 10 10 12 11 12
13 13 11 11 10 10 10 9 9 8 8 8 8 8 8 7 9 12 11 10 11 12 12 12 13 14 16 20 21 21 19 15 13 12 12 13 14 13 11 11 11 12 12
12 11 11 11 11 10 9 9 9 9 8 8 8 9 9 9 11 14 15 12 12 13 13 12 11 11 15 13 16 19 20 22 22 17 16 16 16 14 13 14 13 13 13
11 11 11 11 10 10 10 10 9 8 8 8 8 9 9 10 12 14 15 14 13 14 13 14 14 14 13 13 12 13 15 16 17 15 14 15 15 15 14 14 15 14 14
10 10 10 10 10 10 10 10 8 8 8 8 8 9 10 10 12 14 14 11 11 13 13 13 14 15 17 19 16 15 16 14 16 21 22 22 24 24 19 12 11 11 12
10 9 9 9 9 9 9 8 7 7 7 7 8 9 10 11 11 13 14 9 11 11 11 12 15 17 19 20 16 15 15 14 14 14 15 17 17 17 20 14 10 10 10
7 7 7 8 8 8 7 7 6 6 7 8 9 9 10 11 12 14 15 10 10 11 10 10 10 17 19 21 20 15 17 18 14 13 11 11 10 9 10 9 8 8 10
6 6 6 7 6 5 6 6 6 6 7 8 8 9 8 9 11 12 16 16 15 13 12 11 11 17 20 22 18 19 23 20 11 10 10 9 9 8 8 8 8 8 9
6 6 5 5 5 5 6 6 6 6 6 6 7 8 8 7 8 14 16 18 18 14 12 17 20 22 22 18 19 21 18 11 9 10 10 10 9 8 7 6 7 7 8
5 4 4 4 5 5 5 5 5 6 6 7 7 8 8 8 8 7 8 9 13 13 12 15 20 21 18 17 16 13 10 9 9 9 10 9 8 7 7 6 7 6 7
4 3 3 4 4 5 5 6 7 7 7 8 8 8 9 10 10 12 11 9 9 10 12 10 10 10 9 9 9 9 8 8 9 8 8 8 8 7 7 6 6 6 7
3 3 3 3 4 4 5 6 8 11 13 15 16 15 12 16 18 19 20 21 22 22 16 11 11 11 10 9 9 8 8 8 8 7 8 8 8 7 7 6 6 6 7
3 3 3 4 4 5 5 6 7 8 12 15 17 19 19 20 21 21 22 22 22 21 13 11 11 10 10 9 9 9 8 8 7 7 8 8 7 7 7 6 6 6 6
4 4 4 4 5 5 6 7 7 8 9 9 11 15 18 20 20 20 21 18 13 12 10 10 10 10 10 9 9 9 8 8 7 7 8 7 7 7 7 7 6 7 6
4 4 4 5 5 6 6 7 7 9 10 10 9 10 14 16 18 18 17 11 11 11 10 10 10 9 9 9 9 9 9 8 8 7 7 7 7 7 7 7 7 8 8
4 6 6 5 6 6 6 7 8 9 10 10 10 10 9 10 10 10 10 10 10 10 10 10 10 10 9 9 9 8 8 8 8 7 7 7 7 7 7 8 7 6 6
4 5 7 7 6 7 7 8 8 9 10 10 11 11 15 11 11 12 10 10 10 10 10 10 10 9 9 9 8 9 10 8 8 7 7 6 6 7 7 7 7 6 6
4 5 5 6 7 7 8 8 9 10 11 13 11 11 16 12 11 11 11 10 10 10 10 10 9 9 9 9 8 9 9 9 8 7 7 7 6 7 7 7 6 6 6
5 6 7 7 7 10 10 9 10 10 11 12 12 11 11 10 11 11 11 11 10 10 10 9 10 9 9 8 8 9 9 9 8 7 7 7 7 7 7 7 8 7 7
6 7 8 8 8 9 10 10 10 11 12 12 12 12 11 11 12 12 12 11 11 10 10 10 10 12 14 11 9 9 9 9 8 7 10 9 8 7 7 7 7 8 7
7 8 8 9 9 10 10 11 11 11 12 11 12 12 12 12 12 12 12 11 12 12 13 12 10 11 13 14 13 10 12 15 14 10 8 9 10 10 9 9 8 8 7
8 9 9 9 9 10 10 11 11 12 12 12 12 12 12 12 12 12 11 11 11 11 11 11 12 13 14 12 14 16 18 18 18 18 12 9 10 10 10 9 10 9 9
Wind_Direction
183 181 180 178 176 176 178 178 176 176 179 186 192 199 207 216 225 233 241 248 253 258 256 259 263 265 265 263 261 259 259 260 270 279 282 288 289 289 291 291 291 291 290
184 183 182 177 176 180 181 179 179 182 187 192 196 206 214 223 230 239 246 249 255 260 262 263 265 265 264 265 263 263 263 264 271 281 285 288 288 290 291 290 291 289 288
183 184 182 181 183 186 184 180 183 187 191 195 203 213 220 227 234 242 249 254 258 261 264 264 266 267 267 266 266 267 268 269 270 277 284 287 287 287 289 287 287 287 288
186 188 189 188 189 188 184 183 187 192 196 202 210 218 225 231 237 243 250 257 261 262 262 262 263 263 266 269 270 270 271 273 274 276 280 283 284 286 285 287 288 288 289
190 193 194 190 187 186 186 188 190 196 202 206 214 223 228 232 235 237 247 255 260 263 262 261 260 260 264 266 267 269 270 270 272 274 278 282 283 285 284 286 286 290 288
193 195 190 187 186 188 190 190 192 200 206 210 220 228 234 236 238 245 255 261 262 263 265 265 265 262 262 264 266 267 268 270 272 273 276 278 282 284 286 285 287 288 288
194 192 188 188 190 192 190 193 199 205 210 218 227 234 242 245 244 253 257 265 267 267 268 269 268 266 268 267 269 271 270 268 267 270 273 274 280 282 285 285 281 280 282
192 192 190 190 192 192 195 201 206 210 216 225 232 239 248 251 250 258 264 265 267 267 267 268 270 271 270 270 271 270 269 268 268 267 268 273 276 278 278 278 280 281 279
193 194 191 191 192 194 201 207 210 215 223 231 238 244 251 257 254 260 266 269 267 268 268 267 268 270 272 274 274 273 273 272 269 267 268 272 275 277 278 279 278 278 281
194 194 190 192 195 201 206 210 213 219 230 237 244 249 255 262 260 261 264 266 269 272 272 269 265 267 272 275 273 274 275 277 278 277 274 274 275 277 278 273 273 274 279
184 185 188 193 200 205 208 212 216 223 234 243 251 255 257 261 264 262 263 264 267 273 273 272 270 272 274 275 275 273 274 280 282 279 278 275 272 269 269 266 261 262 270
172 180 188 196 197 203 210 216 222 228 240 249 257 263 261 260 258 261 263 264 270 274 275 275 274 276 277 278 277 275 279 283 280 277 276 275 274 272 270 268 263 259 260
172 183 189 195 200 207 215 221 228 233 242 252 258 264 267 265 262 262 267 270 272 272 274 277 281 283 284 281 277 278 280 278 274 274 276 279 279 278 277 274 268 261 261
177 184 190 202 212 218 221 225 231 236 245 252 259 265 270 270 269 268 268 273 274 273 276 280 282 282 278 276 278 278 271 267 269 272 277 280 281 277 271 271 273 272 272
182 192 204 216 225 232 235 237 241 243 245 251 259 264 270 272 271 275 279 278 277 276 283 279 277 277 273 269 268 267 264 263 265 265 271 276 276 272 271 270 266 267 268
193 208 219 229 238 245 253 259 244 248 257 258 262 265 269 270 279 281 282 282 284 285 284 277 276 275 275 277 276 272 267 264 264 266 269 271 271 271 270 266 261 263 269
218 229 237 243 249 255 260 266 274 265 256 260 262 266 267 274 279 282 284 286 286 285 278 273 273 274 275 275 275 275 272 268 269 268 267 268 267 266 265 265 263 263 266
237 241 249 253 257 260 263 267 272 278 282 276 268 268 272 275 279 282 286 289 282 275 267 269 271 272 273 274 274 273 271 268 264 261 263 264 262 262 262 262 261 263 268
246 250 255 261 262 263 266 269 271 273 275 280 281 276 274 278 281 281 283 275 273 273 271 270 270 270 271 272 273 272 269 265 263 261 261 262 260 258 258 260 261 262 263
254 258 266 268 268 267 267 269 271 274 276 278 278 281 284 282 278 277 272 268 268 269 271 271 271 270 270 270 269 268 266 262 260 257 257 257 256 255 256 257 257 259 260
266 264 266 268 266 268 270 271 272 273 275 276 277 279 282 281 278 278 275 271 270 271 271 270 269 269 267 265 265 264 262 261 259 256 254 254 254 254 254 254 252 252 256
271 269 268 270 272 272 274 273 273 273 275 277 280 281 282 278 276 276 275 274 273 272 271 271 269 268 266 264 264 263 260 258 255 252 252 251 252 253 253 251 250 249 249
273 274 274 274 275 277 278 275 274 275 277 279 281 282 281 277 276 275 275 275 274 272 271 267 266 267 265 262 260 260 259 256 253 251 251 250 249 250 249 248 247 247 245
276 277 278 280 279 278 278 279 278 278 279 280 280 280 280 279 277 276 276 276 274 272 271 269 267 266 266 266 264 260 255 253 252 249 246 247 248 249 248 247 246 243 241
281 281 281 282 281 281 281 281 280 280 280 280 279 279 279 279 278 277 275 274 274 272 272 271 269 267 266 265 264 262 259 257 255 251 242 240 242 241 242 244 243 241 234
284 283 282 282 281 280 280 281 280 281 280 280 279 279 279 279 279 279 278 276 274 272 272 270 268 267 268 267 265 262 262 260 257 254 245 240 238 236 234 235 235 234 231